Terminal Aerodrome Forecast
Issued by NWS Charleston, WV

Current Version | Previous Version | Graphics & Text | Print | Product List | Glossary On
Versions: 1 2 3 4 5 6 7 8 9 10 11 12 13 14 15 16 17 18 19 20 21 22
456
FTUS41 KRLX 220248 AAA
TAFEKN
TAF AMD
KEKN 220248Z 2203/2224 26008G15KT P6SM BKN045
     FM220600 29011G22KT P6SM BKN025
     FM221300 33010G16KT P6SM FEW080=

USA.gov is the U.S. government's official web portal to all federal, state and local government web resources and services.